When you browse on this site, cookies collect data to enhance your experience and personalize the content and advertising you see.
Visit our Privacy Policy to learn more. By continuing to use the site, you agree to this use of cookies and data.
  • In Lithuania
  • List of Countries
  • For 7 days
  • Water Temperature
  • Weather Map
  • Weather Widgets
  • user-avatar
    Login

    Hourly Weather Cuiaba

    Today, 17 September, Tuesday

    Time Temperature Precipitation Wind Pressure Humidity
    00:00 +29°C° 0 mm 1 mps 738 mmHg 22%
    01:00 +28°C° 0 mm 1 mps 738 mmHg 23%
    02:00 +27°C° 0 mm 1 mps 738 mmHg 24%
    03:00 +27°C° 0 mm 1 mps 738 mmHg 25%
    04:00 +26°C° 0 mm 1 mps 738 mmHg 25%
    05:00 +26°C° 0 mm 1 mps 738 mmHg 26%
    06:00 +29°C° 0 mm 1 mps 738 mmHg 22%
    07:00 +33°C° 0 mm 1 mps 739 mmHg 18%
    08:00 +37°C° 0 mm 2 mps 739 mmHg 15%
    09:00 +41°C° 0 mm 1 mps 739 mmHg 12%
    10:00 +45°C° 0 mm 1 mps 739 mmHg 10%
    11:00 +49°C° 0 mm 1 mps 739 mmHg 7%
    12:00 +48°C° 0 mm 1 mps 737 mmHg 7%
    13:00 +48°C° 0 mm 1 mps 736 mmHg 7%
    14:00 +48°C° 0 mm 1 mps 735 mmHg 7%
    15:00 +47°C° 0 mm 1 mps 735 mmHg 7%
    16:00 +45°C° 0 mm 1 mps 734 mmHg 8%
    17:00 +44°C° 0 mm 1 mps 734 mmHg 9%
    18:00 +40°C° 0 mm 1 mps 734 mmHg 11%
    19:00 +36°C° 0 mm 1 mps 734 mmHg 14%
    20:00 +32°C° 0 mm 1 mps 735 mmHg 16%
    21:00 +31°C° 0 mm 1 mps 735 mmHg 17%
    22:00 +31°C° 0 mm 1 mps 735 mmHg 18%
    23:00 +30°C° 0 mm 1 mps 735 mmHg 19%

    Tomorrow, 18 September, Wednesday

    Time Temperature Precipitation Wind Pressure Humidity
    00:00 +29°C° 0 mm 1 mps 735 mmHg 19%
    01:00 +28°C° 0 mm 1 mps 735 mmHg 20%
    02:00 +28°C° 0 mm 1 mps 734 mmHg 21%
    03:00 +27°C° 0 mm 1 mps 735 mmHg 22%
    04:00 +27°C° 0 mm 1 mps 735 mmHg 23%
    05:00 +26°C° 0 mm 1 mps 735 mmHg 23%
    06:00 +29°C° 0 mm 1 mps 736 mmHg 20%
    07:00 +34°C° 0 mm 2 mps 736 mmHg 16%
    08:00 +37°C° 0 mm 2 mps 737 mmHg 13%
    09:00 +39°C° 0 mm 3 mps 737 mmHg 12%
    10:00 +43°C° 0 mm 3 mps 736 mmHg 10%
    11:00 +47°C° 0 mm 4 mps 736 mmHg 8%
    12:00 +47°C° 0 mm 4 mps 735 mmHg 8%
    13:00 +47°C° 0 mm 3 mps 734 mmHg 8%
    14:00 +48°C° 0 mm 3 mps 733 mmHg 7%
    15:00 +47°C° 0 mm 2 mps 733 mmHg 8%
    16:00 +46°C° 0 mm 2 mps 733 mmHg 8%
    17:00 +44°C° 0 mm 1 mps 732 mmHg 9%
    18:00 +41°C° 0 mm 1 mps 733 mmHg 11%
    19:00 +36°C° 0 mm 1 mps 733 mmHg 13%
    20:00 +33°C° 0 mm 1 mps 733 mmHg 15%
    21:00 +32°C° 0 mm 1 mps 734 mmHg 17%
    22:00 +32°C° 0 mm 1 mps 734 mmHg 18%
    23:00 +31°C° 0 mm 1 mps 734 mmHg 19%

    Day after tomorrow, 19 September, Thursday

    Time Temperature Precipitation Wind Pressure Humidity
    00:00 +31°C° 0 mm 2 mps 734 mmHg 20%
    01:00 +30°C° 0 mm 2 mps 733 mmHg 21%
    02:00 +30°C° 0 mm 3 mps 733 mmHg 22%
    03:00 +30°C° 0 mm 3 mps 733 mmHg 24%
    04:00 +30°C° 0 mm 3 mps 734 mmHg 26%
    05:00 +29°C° 0 mm 3 mps 734 mmHg 27%
    06:00 +33°C° 0 mm 3 mps 735 mmHg 25%
    07:00 +36°C° 0 mm 3 mps 735 mmHg 23%
    08:00 +38°C° 0 mm 3 mps 736 mmHg 21%
    09:00 +42°C° 0 mm 4 mps 736 mmHg 18%
    10:00 +44°C° 0 mm 4 mps 736 mmHg 16%
    11:00 +48°C° 0 mm 5 mps 736 mmHg 14%
    12:00 +47°C° 0 mm 5 mps 735 mmHg 14%
    13:00 +47°C° 0 mm 5 mps 734 mmHg 14%
    14:00 +47°C° 0 mm 5 mps 733 mmHg 14%
    15:00 +45°C° 0 mm 4 mps 733 mmHg 15%
    16:00 +45°C° 0 mm 4 mps 733 mmHg 15%
    17:00 +44°C° 0 mm 3 mps 733 mmHg 16%
    18:00 +42°C° 0 mm 3 mps 733 mmHg 18%
    19:00 +38°C° 0 mm 2 mps 734 mmHg 21%
    20:00 +36°C° 0 mm 2 mps 734 mmHg 24%
    21:00 +35°C° 0 mm 2 mps 735 mmHg 25%
    22:00 +34°C° 0 mm 2 mps 735 mmHg 27%
    23:00 +32°C° 0 mm 1 mps 735 mmHg 28%

    20 September, Friday

    Time Temperature Precipitation Wind Pressure Humidity
    00:00 +31°C° 0 mm 2 mps 735 mmHg 29%
    01:00 +31°C° 0 mm 2 mps 735 mmHg 30%
    02:00 +30°C° 0 mm 2 mps 735 mmHg 31%
    03:00 +30°C° 0 mm 2 mps 735 mmHg 32%
    04:00 +29°C° 0 mm 2 mps 736 mmHg 33%
    05:00 +29°C° 0 mm 2 mps 736 mmHg 34%
    06:00 +32°C° 0 mm 2 mps 737 mmHg 29%
    07:00 +36°C° 0 mm 2 mps 737 mmHg 25%
    08:00 +39°C° 0 mm 2 mps 738 mmHg 21%
    09:00 +41°C° 0 mm 2 mps 738 mmHg 18%
    10:00 +45°C° 0 mm 3 mps 738 mmHg 16%
    11:00 +47°C° 0 mm 3 mps 738 mmHg 13%
    12:00 +47°C° 0 mm 3 mps 737 mmHg 13%
    13:00 +48°C° 0 mm 2 mps 736 mmHg 12%
    14:00 +48°C° 0 mm 2 mps 736 mmHg 11%
    15:00 +46°C° 0 mm 2 mps 735 mmHg 13%
    16:00 +43°C° 0 mm 2 mps 735 mmHg 15%
    17:00 +42°C° 0 mm 2 mps 735 mmHg 17%
    18:00 +40°C° 0 mm 2 mps 736 mmHg 19%
    19:00 +37°C° 0 mm 1 mps 736 mmHg 21%
    20:00 +35°C° 0 mm 1 mps 737 mmHg 23%
    21:00 +34°C° 0 mm 1 mps 737 mmHg 25%
    22:00 +33°C° 0 mm 1 mps 737 mmHg 28%
    23:00 +32°C° 0 mm 1 mps 737 mmHg 30%

    21 September, Saturday

    Time Temperature Precipitation Wind Pressure Humidity
    00:00 +31°C° 0 mm 1 mps 737 mmHg 32%
    01:00 +30°C° 0 mm 1 mps 737 mmHg 35%
    02:00 +29°C° 0 mm 1 mps 737 mmHg 38%
    03:00 +29°C° 0 mm 1 mps 737 mmHg 39%
    04:00 +28°C° 0 mm 1 mps 737 mmHg 41%
    05:00 +28°C° 0 mm 1 mps 737 mmHg 42%
    06:00 +30°C° 0 mm 1 mps 738 mmHg 38%
    07:00 +34°C° 0 mm 2 mps 738 mmHg 33%
    08:00 +37°C° 0 mm 2 mps 739 mmHg 28%
    09:00 +39°C° 0 mm 2 mps 739 mmHg 24%
    10:00 +42°C° 0 mm 2 mps 739 mmHg 21%
    11:00 +46°C° 0 mm 2 mps 739 mmHg 18%
    12:00 +46°C° 0 mm 2 mps 738 mmHg 16%
    13:00 +47°C° 0 mm 2 mps 737 mmHg 15%
    14:00 +46°C° 0 mm 1 mps 736 mmHg 14%
    15:00 +45°C° 0 mm 1 mps 736 mmHg 15%
    16:00 +43°C° 0 mm 1 mps 735 mmHg 16%
    17:00 +42°C° 0 mm 1 mps 735 mmHg 17%
    18:00 +40°C° 0 mm 1 mps 735 mmHg 20%
    19:00 +37°C° 0 mm 1 mps 736 mmHg 22%
    20:00 +35°C° 0 mm 1 mps 736 mmHg 24%
    21:00 +34°C° 0 mm 1 mps 736 mmHg 26%
    22:00 +31°C° 0 mm 0 mps 737 mmHg 28%
    23:00 +30°C° 0 mm 0 mps 737 mmHg 30%

    22 September, Sunday

    Time Temperature Precipitation Wind Pressure Humidity
    00:00 +31°C° 0 mm 1 mps 736 mmHg 31%
    01:00 +30°C° 0 mm 1 mps 736 mmHg 32%
    02:00 +30°C° 0 mm 1 mps 736 mmHg 34%
    03:00 +29°C° 0 mm 1 mps 736 mmHg 35%
    04:00 +28°C° 0 mm 1 mps 736 mmHg 37%
    05:00 +27°C° 0 mm 1 mps 736 mmHg 39%
    06:00 +31°C° 0 mm 1 mps 737 mmHg 34%
    07:00 +34°C° 0 mm 1 mps 738 mmHg 29%
    08:00 +37°C° 0 mm 1 mps 738 mmHg 24%
    09:00 +41°C° 0 mm 1 mps 738 mmHg 20%
    10:00 +44°C° 0 mm 1 mps 738 mmHg 17%
    11:00 +48°C° 0 mm 2 mps 738 mmHg 13%
    12:00 +48°C° 0 mm 2 mps 737 mmHg 13%
    13:00 +48°C° 0 mm 2 mps 736 mmHg 12%
    14:00 +48°C° 0 mm 2 mps 736 mmHg 12%
    15:00 +47°C° 0 mm 2 mps 735 mmHg 13%
    16:00 +44°C° 0 mm 1 mps 735 mmHg 14%
    17:00 +43°C° 0 mm 1 mps 735 mmHg 15%
    18:00 +41°C° 0 mm 1 mps 736 mmHg 17%
    19:00 +39°C° 0 mm 1 mps 736 mmHg 19%
    20:00 +36°C° 0 mm 1 mps 737 mmHg 21%
    21:00 +35°C° 0 mm 1 mps 737 mmHg 22%
    22:00 +35°C° 0 mm 1 mps 737 mmHg 23%
    23:00 +34°C° 0 mm 1 mps 737 mmHg 24%
    Show more